Location: Strawberry
(45.6646°N, 111.9596°W)
Time: 22:01:31
(UTC+00:00)

Explorer 11/Cluster Stage 4 - Pass Details

Date: 13 October 2022
Orbit: 466 x 1248 km, 28.8° (Epoch: 28 November)

Event Time Altitude Azimuth Distance (km) Brightness Sun altitude
Rises 15:04:53 0° 224° (SW) 3,616 9.8 12.9°
Reaches altitude 10° 15:08:16 10° 206° (SSW) 2,814 9.5 13.4°
Maximum altitude 15:12:46 18° 166° (SSE) 2,421 9.8 14.1°
Drops below altitude 10° 15:17:40 10° 127° (SE) 3,109 12.1 14.9°
Sets 15:21:41 0° 111° (ESE) 4,145 12.1 15.5°
